Year,Month,Day,Hour,Minute,Value (Times are PST for windgust in km/hr)
2020,01,12,00,00,6.40
2020,01,12,00,01,4.80
2020,01,12,00,02,6.40
2020,01,12,00,03,3.20
2020,01,12,00,04,4.80
2020,01,12,00,05,6.40
2020,01,12,00,06,3.20
2020,01,12,00,07,4.80
2020,01,12,00,08,4.80
2020,01,12,00,09,4.80
2020,01,12,00,10,6.40
2020,01,12,00,11,4.80
2020,01,12,00,12,1.60
2020,01,12,00,13,4.80
2020,01,12,00,14,4.80
2020,01,12,00,15,6.40
2020,01,12,00,16,3.20
2020,01,12,00,19,4.80
2020,01,12,00,20,6.40
2020,01,12,00,21,6.40
2020,01,12,00,22,6.40
2020,01,12,00,23,9.60
2020,01,12,00,24,4.80
2020,01,12,00,25,3.20
2020,01,12,00,26,6.40
2020,01,12,00,27,3.20
2020,01,12,00,28,3.20
2020,01,12,00,29,9.60
2020,01,12,00,30,9.60
2020,01,12,00,31,4.80
2020,01,12,00,32,3.20
2020,01,12,00,33,6.40
2020,01,12,00,34,8.10
2020,01,12,00,35,4.80
2020,01,12,00,36,3.20
2020,01,12,00,37,6.40
2020,01,12,00,38,3.20
2020,01,12,00,39,4.80
2020,01,12,00,40,3.20
2020,01,12,00,41,6.40
2020,01,12,00,42,4.80
2020,01,12,00,43,1.60
2020,01,12,00,44,4.80
2020,01,12,00,45,3.20
2020,01,12,00,46,6.40
2020,01,12,00,47,4.80
2020,01,12,00,48,3.20
2020,01,12,00,49,4.80
2020,01,12,00,50,3.20
2020,01,12,00,51,4.80
2020,01,12,00,52,6.40
2020,01,12,00,53,4.80
2020,01,12,00,54,3.20
2020,01,12,00,55,4.80
2020,01,12,00,56,6.40
2020,01,12,00,57,6.40
2020,01,12,00,58,8.10
2020,01,12,00,59,4.80
2020,01,12,01,00,4.80
2020,01,12,01,01,8.10
2020,01,12,01,02,4.80
2020,01,12,01,03,6.40
2020,01,12,01,04,4.80
2020,01,12,01,05,3.20
2020,01,12,01,06,4.80
2020,01,12,01,07,4.80
2020,01,12,01,08,6.40
2020,01,12,01,09,4.80
2020,01,12,01,10,8.10
2020,01,12,01,11,3.20
2020,01,12,01,12,4.80
2020,01,12,01,13,4.80
2020,01,12,01,14,4.80
2020,01,12,01,15,4.80
2020,01,12,01,16,3.20
2020,01,12,01,17,4.80
2020,01,12,01,18,3.20
2020,01,12,01,19,6.40
2020,01,12,01,20,6.40
2020,01,12,01,21,4.80
2020,01,12,01,22,4.80
2020,01,12,01,23,4.80
2020,01,12,01,24,3.20
2020,01,12,01,25,4.80
2020,01,12,01,26,4.80
2020,01,12,01,27,6.40
2020,01,12,01,28,4.80
2020,01,12,01,29,6.40
2020,01,12,01,30,3.20
2020,01,12,01,31,3.20
2020,01,12,01,32,3.20
2020,01,12,01,33,1.60
2020,01,12,01,35,4.80
2020,01,12,01,36,3.20
2020,01,12,01,37,3.20
2020,01,12,01,38,4.80
2020,01,12,01,39,3.20
2020,01,12,01,40,9.60
2020,01,12,01,41,6.40
2020,01,12,01,42,4.80
2020,01,12,01,43,3.20
2020,01,12,01,44,8.10
2020,01,12,01,45,3.20
2020,01,12,01,46,3.20
2020,01,12,01,47,3.20
2020,01,12,01,48,6.40
2020,01,12,01,49,4.80
2020,01,12,01,50,4.80
2020,01,12,01,51,4.80
2020,01,12,01,52,4.80
2020,01,12,01,53,3.20
2020,01,12,01,54,4.80
2020,01,12,01,55,3.20
2020,01,12,01,56,3.20
2020,01,12,01,57,4.80
2020,01,12,01,58,3.20
2020,01,12,01,59,3.20
2020,01,12,02,00,1.60
2020,01,12,02,01,3.20
2020,01,12,02,02,4.80
2020,01,12,02,03,4.80
2020,01,12,02,04,3.20
2020,01,12,02,05,1.60
2020,01,12,02,06,3.20
2020,01,12,02,13,4.80
2020,01,12,02,14,1.60
2020,01,12,02,15,1.60
2020,01,12,02,16,4.80
2020,01,12,02,17,11.30
2020,01,12,02,18,4.80
2020,01,12,02,19,3.20
2020,01,12,02,20,1.60
2020,01,12,02,21,6.40
2020,01,12,02,22,3.20
2020,01,12,02,23,1.60
2020,01,12,02,24,1.60
2020,01,12,02,26,3.20
2020,01,12,02,27,4.80
2020,01,12,02,28,4.80
2020,01,12,02,29,4.80
2020,01,12,02,30,11.30
2020,01,12,02,31,3.20
2020,01,12,02,32,6.40
2020,01,12,02,33,4.80
2020,01,12,02,34,3.20
2020,01,12,02,35,3.20
2020,01,12,02,36,6.40
2020,01,12,02,37,3.20
2020,01,12,02,38,3.20
2020,01,12,02,39,4.80
2020,01,12,02,40,4.80
2020,01,12,02,41,1.60
2020,01,12,02,42,4.80
2020,01,12,02,43,4.80
2020,01,12,02,44,6.40
2020,01,12,02,45,3.20
2020,01,12,02,46,3.20
2020,01,12,02,47,4.80
2020,01,12,02,48,3.20
2020,01,12,02,49,4.80
2020,01,12,02,50,4.80
2020,01,12,02,51,4.80
2020,01,12,02,52,3.20
2020,01,12,02,53,3.20
2020,01,12,02,54,6.40
2020,01,12,02,55,8.10
2020,01,12,02,56,4.80
2020,01,12,02,57,4.80
2020,01,12,02,58,3.20
2020,01,12,02,59,4.80
2020,01,12,03,00,6.40
2020,01,12,03,01,3.20
2020,01,12,03,02,8.10
2020,01,12,03,03,6.40
2020,01,12,03,04,8.10
2020,01,12,03,05,4.80
2020,01,12,03,06,4.80
2020,01,12,03,07,8.10
2020,01,12,03,08,6.40
2020,01,12,03,09,6.40
2020,01,12,03,10,6.40
2020,01,12,03,11,6.40
2020,01,12,03,12,6.40
2020,01,12,03,13,4.80
2020,01,12,03,14,3.20
2020,01,12,03,15,3.20
2020,01,12,03,16,4.80
2020,01,12,03,17,6.40
2020,01,12,03,18,6.40
2020,01,12,03,19,4.80
2020,01,12,03,20,3.20
2020,01,12,03,21,4.80
2020,01,12,03,22,4.80
2020,01,12,03,23,4.80
2020,01,12,03,24,3.20
2020,01,12,03,25,4.80
2020,01,12,03,26,8.10
2020,01,12,03,27,4.80
2020,01,12,03,28,6.40
2020,01,12,03,29,4.80
2020,01,12,03,30,6.40
2020,01,12,03,31,3.20
2020,01,12,03,32,4.80
2020,01,12,03,33,4.80
2020,01,12,03,34,4.80
2020,01,12,03,35,3.20
2020,01,12,03,36,1.60
2020,01,12,03,37,3.20
2020,01,12,03,38,4.80
2020,01,12,03,39,3.20
2020,01,12,03,40,1.60
2020,01,12,03,41,6.40
2020,01,12,03,42,4.80
2020,01,12,03,43,4.80
2020,01,12,03,44,4.80
2020,01,12,03,45,3.20
2020,01,12,03,46,4.80
2020,01,12,03,47,3.20
2020,01,12,03,48,3.20
2020,01,12,03,49,3.20
2020,01,12,03,50,8.10
2020,01,12,03,51,6.40
2020,01,12,03,52,4.80
2020,01,12,03,53,3.20
2020,01,12,03,54,8.10
2020,01,12,03,55,3.20
2020,01,12,03,56,6.40
2020,01,12,03,57,6.40
2020,01,12,03,58,4.80
2020,01,12,03,59,3.20
2020,01,12,04,00,4.80
2020,01,12,04,01,4.80
2020,01,12,04,02,3.20
2020,01,12,04,03,1.60
2020,01,12,04,04,6.40
2020,01,12,04,05,4.80
2020,01,12,04,06,3.20
2020,01,12,04,07,3.20
2020,01,12,04,08,6.40
2020,01,12,04,09,4.80
2020,01,12,04,10,4.80
2020,01,12,04,11,3.20
2020,01,12,04,12,4.80
2020,01,12,04,13,4.80
2020,01,12,04,14,6.40
2020,01,12,04,15,9.60
2020,01,12,04,16,3.20
2020,01,12,04,17,4.80
2020,01,12,04,18,4.80
2020,01,12,04,19,9.60
2020,01,12,04,20,4.80
2020,01,12,04,21,4.80
2020,01,12,04,22,6.40
2020,01,12,04,23,4.80
2020,01,12,04,24,6.40
2020,01,12,04,25,4.80
2020,01,12,04,26,4.80
2020,01,12,04,27,3.20
2020,01,12,04,28,4.80
2020,01,12,04,29,6.40
2020,01,12,04,30,3.20
2020,01,12,04,31,3.20
2020,01,12,04,32,6.40
2020,01,12,04,33,4.80
2020,01,12,04,34,3.20
2020,01,12,04,35,4.80
2020,01,12,04,36,6.40
2020,01,12,04,37,3.20
2020,01,12,04,38,3.20
2020,01,12,04,39,4.80
2020,01,12,04,40,4.80
2020,01,12,04,41,3.20
2020,01,12,04,42,4.80
2020,01,12,04,43,3.20
2020,01,12,04,44,3.20
2020,01,12,04,45,4.80
2020,01,12,04,46,4.80
2020,01,12,04,47,4.80
2020,01,12,04,48,4.80
2020,01,12,04,49,1.60
2020,01,12,04,50,3.20
2020,01,12,04,51,3.20
2020,01,12,04,52,4.80
2020,01,12,04,53,3.20
2020,01,12,04,54,4.80
2020,01,12,04,55,4.80
2020,01,12,04,56,3.20
2020,01,12,04,57,3.20
2020,01,12,04,58,4.80
2020,01,12,04,59,3.20
2020,01,12,05,00,3.20
2020,01,12,05,01,3.20
2020,01,12,05,02,4.80
2020,01,12,05,03,4.80
2020,01,12,05,04,3.20
2020,01,12,05,05,4.80
2020,01,12,05,06,3.20
2020,01,12,05,07,4.80
2020,01,12,05,08,3.20
2020,01,12,05,09,4.80
2020,01,12,05,10,6.40
2020,01,12,05,11,6.40
2020,01,12,05,12,3.20
2020,01,12,05,13,4.80
2020,01,12,05,14,4.80
2020,01,12,05,15,6.40
2020,01,12,05,16,6.40
2020,01,12,05,17,4.80
2020,01,12,05,18,4.80
2020,01,12,05,19,4.80
2020,01,12,05,20,3.20
2020,01,12,05,21,4.80
2020,01,12,05,22,4.80
2020,01,12,05,23,6.40
2020,01,12,05,24,4.80
2020,01,12,05,25,4.80
2020,01,12,05,26,3.20
2020,01,12,05,27,3.20
2020,01,12,05,28,3.20
2020,01,12,05,59,4.80
2020,01,12,06,00,3.20
2020,01,12,06,01,3.20
2020,01,12,06,02,3.20
2020,01,12,06,03,3.20
2020,01,12,06,04,4.80
2020,01,12,06,09,6.40
2020,01,12,06,10,6.40
2020,01,12,06,11,6.40
2020,01,12,06,12,6.40
2020,01,12,06,13,4.80
2020,01,12,06,14,3.20
2020,01,12,06,15,1.60
2020,01,12,06,16,3.20
2020,01,12,06,17,3.20
2020,01,12,06,18,4.80
2020,01,12,06,19,1.60
2020,01,12,06,20,1.60
2020,01,12,06,21,3.20
2020,01,12,06,22,3.20
2020,01,12,06,23,3.20
2020,01,12,06,24,3.20
2020,01,12,06,25,3.20
2020,01,12,06,26,3.20
2020,01,12,06,27,3.20
2020,01,12,06,28,1.60
2020,01,12,06,29,1.60
2020,01,12,06,30,3.20
2020,01,12,06,31,3.20
2020,01,12,06,32,3.20
2020,01,12,06,33,1.60
2020,01,12,06,34,6.40
2020,01,12,06,35,4.80
2020,01,12,06,36,3.20
2020,01,12,06,37,1.60
2020,01,12,06,41,3.20
2020,01,12,06,42,3.20
2020,01,12,06,43,3.20
2020,01,12,06,44,1.60
2020,01,12,06,45,3.20
2020,01,12,06,46,4.80
2020,01,12,06,47,1.60
2020,01,12,06,48,3.20
2020,01,12,06,49,3.20
2020,01,12,06,50,4.80
2020,01,12,06,51,4.80
2020,01,12,06,53,6.40
2020,01,12,06,54,4.80
2020,01,12,06,55,3.20
2020,01,12,06,56,6.40
2020,01,12,06,57,4.80
2020,01,12,06,58,1.60
2020,01,12,06,59,3.20
2020,01,12,07,00,4.80
2020,01,12,07,01,3.20
2020,01,12,07,02,3.20
2020,01,12,07,03,4.80
2020,01,12,07,04,3.20
2020,01,12,07,05,4.80
2020,01,12,07,06,6.40
2020,01,12,07,07,1.60
2020,01,12,07,08,3.20
2020,01,12,07,09,1.60
2020,01,12,07,10,3.20
2020,01,12,07,11,1.60
2020,01,12,07,12,3.20
2020,01,12,07,13,4.80
2020,01,12,07,14,3.20
2020,01,12,07,15,3.20
2020,01,12,07,16,3.20
2020,01,12,07,17,3.20
2020,01,12,07,18,3.20
2020,01,12,07,19,1.60
2020,01,12,07,20,4.80
2020,01,12,07,21,4.80
2020,01,12,07,22,3.20
2020,01,12,07,23,3.20
2020,01,12,07,24,4.80
2020,01,12,07,25,4.80
2020,01,12,07,26,9.60
2020,01,12,07,27,4.80
2020,01,12,07,28,3.20
2020,01,12,07,29,3.20
2020,01,12,07,30,1.60
2020,01,12,07,31,3.20
2020,01,12,07,32,4.80
2020,01,12,07,33,1.60
2020,01,12,07,34,4.80
2020,01,12,07,35,3.20
2020,01,12,07,36,4.80
2020,01,12,07,37,1.60
2020,01,12,07,38,4.80
2020,01,12,07,39,8.10
2020,01,12,07,40,4.80
2020,01,12,07,41,4.80
2020,01,12,07,42,3.20
2020,01,12,07,43,3.20
2020,01,12,07,44,3.20
2020,01,12,07,45,3.20
2020,01,12,07,46,3.20
2020,01,12,07,47,6.40
2020,01,12,07,48,4.80
2020,01,12,07,49,3.20
2020,01,12,07,50,3.20
2020,01,12,07,51,6.40
2020,01,12,07,52,8.10
2020,01,12,07,53,9.60
2020,01,12,07,54,4.80
2020,01,12,07,55,9.60
2020,01,12,07,56,4.80
2020,01,12,07,57,8.10
2020,01,12,07,58,4.80
2020,01,12,07,59,4.80
2020,01,12,08,00,8.10
2020,01,12,08,01,3.20
2020,01,12,08,02,3.20
2020,01,12,08,03,3.20
2020,01,12,08,04,1.60
2020,01,12,08,06,4.80
2020,01,12,08,07,3.20
2020,01,12,08,08,3.20
2020,01,12,08,09,3.20
2020,01,12,08,10,1.60
2020,01,12,08,11,3.20
2020,01,12,08,12,3.20
2020,01,12,08,13,1.60
2020,01,12,08,14,1.60
2020,01,12,08,15,1.60
2020,01,12,08,16,1.60
2020,01,12,08,17,3.20
2020,01,12,08,18,3.20
2020,01,12,08,19,4.80
2020,01,12,08,20,4.80
2020,01,12,08,21,4.80
2020,01,12,08,22,6.40
2020,01,12,08,23,6.40
2020,01,12,08,24,6.40
2020,01,12,08,25,1.60
2020,01,12,08,26,6.40
2020,01,12,08,27,4.80
2020,01,12,08,28,3.20
2020,01,12,08,29,4.80
2020,01,12,08,30,3.20
2020,01,12,08,31,4.80
2020,01,12,08,32,4.80
2020,01,12,08,33,4.80
2020,01,12,08,34,3.20
2020,01,12,08,35,1.60
2020,01,12,08,36,1.60
2020,01,12,08,37,4.80
2020,01,12,08,38,3.20
2020,01,12,08,39,4.80
2020,01,12,08,40,3.20
2020,01,12,08,41,4.80
2020,01,12,08,42,4.80
2020,01,12,08,43,6.40
2020,01,12,08,44,4.80
2020,01,12,08,45,3.20
2020,01,12,08,46,6.40
2020,01,12,08,47,4.80
2020,01,12,08,48,4.80
2020,01,12,08,49,3.20
2020,01,12,08,50,3.20
2020,01,12,08,51,8.10
2020,01,12,08,52,6.40
2020,01,12,08,53,3.20
2020,01,12,08,54,3.20
2020,01,12,08,55,4.80
2020,01,12,08,56,4.80
2020,01,12,08,57,4.80
2020,01,12,08,58,3.20
2020,01,12,08,59,3.20
2020,01,12,09,00,1.60
2020,01,12,09,01,6.40
2020,01,12,09,02,3.20
2020,01,12,09,03,4.80
2020,01,12,09,04,4.80
2020,01,12,09,05,3.20
2020,01,12,09,06,6.40
2020,01,12,09,07,4.80
2020,01,12,09,08,3.20
2020,01,12,09,09,3.20
2020,01,12,09,10,1.60
2020,01,12,09,11,1.60
2020,01,12,09,12,1.60
2020,01,12,09,13,1.60
2020,01,12,09,14,8.10
2020,01,12,09,15,6.40
2020,01,12,09,16,3.20
2020,01,12,09,17,3.20
2020,01,12,09,18,9.60
2020,01,12,09,19,6.40
2020,01,12,09,20,11.30
2020,01,12,09,21,8.10
2020,01,12,09,22,6.40
2020,01,12,09,23,3.20
2020,01,12,09,24,3.20
2020,01,12,09,25,3.20
2020,01,12,09,26,4.80
2020,01,12,09,27,4.80
2020,01,12,09,28,6.40
2020,01,12,09,29,8.10
2020,01,12,09,30,4.80
2020,01,12,09,31,3.20
2020,01,12,09,32,6.40
2020,01,12,09,33,4.80
2020,01,12,09,34,6.40
2020,01,12,09,35,4.80
2020,01,12,09,36,8.10
2020,01,12,09,37,4.80
2020,01,12,09,38,4.80
2020,01,12,09,39,3.20
2020,01,12,09,40,8.10
2020,01,12,09,41,4.80
2020,01,12,09,42,6.40
2020,01,12,09,43,4.80
2020,01,12,09,44,6.40
2020,01,12,09,45,4.80
2020,01,12,09,46,4.80
2020,01,12,09,47,6.40
2020,01,12,09,48,6.40
2020,01,12,09,49,4.80
2020,01,12,09,50,6.40
2020,01,12,09,51,6.40
2020,01,12,09,52,6.40
2020,01,12,09,53,4.80
2020,01,12,09,54,4.80
2020,01,12,09,55,6.40
2020,01,12,09,56,6.40
2020,01,12,09,57,6.40
2020,01,12,09,58,6.40
2020,01,12,09,59,4.80
2020,01,12,10,00,4.80
2020,01,12,10,01,6.40
2020,01,12,10,02,4.80
2020,01,12,10,03,3.20
2020,01,12,10,04,8.10
2020,01,12,10,05,4.80
2020,01,12,10,06,4.80
2020,01,12,10,07,4.80
2020,01,12,10,08,4.80
2020,01,12,10,09,4.80
2020,01,12,10,10,4.80
2020,01,12,10,11,6.40
2020,01,12,10,12,6.40
2020,01,12,10,13,4.80
2020,01,12,10,14,6.40
2020,01,12,10,15,8.10
2020,01,12,10,16,6.40
2020,01,12,10,17,9.60
2020,01,12,10,18,6.40
2020,01,12,10,19,6.40
2020,01,12,10,20,4.80
2020,01,12,10,21,4.80
2020,01,12,10,22,6.40
2020,01,12,10,23,6.40
2020,01,12,10,24,4.80
2020,01,12,10,25,3.20
2020,01,12,10,26,4.80
2020,01,12,10,27,6.40
2020,01,12,10,28,4.80
2020,01,12,10,29,4.80
2020,01,12,10,30,3.20
2020,01,12,10,31,4.80
2020,01,12,10,32,4.80
2020,01,12,10,33,4.80
2020,01,12,10,34,4.80
2020,01,12,10,35,4.80
2020,01,12,10,36,4.80
2020,01,12,10,37,4.80
2020,01,12,10,38,4.80
2020,01,12,10,39,4.80
2020,01,12,10,40,4.80
2020,01,12,10,41,4.80
2020,01,12,10,42,4.80
2020,01,12,10,43,4.80
2020,01,12,10,44,4.80
2020,01,12,10,45,4.80
2020,01,12,10,46,4.80
2020,01,12,10,47,6.40
2020,01,12,10,48,8.10
2020,01,12,10,49,8.10
2020,01,12,10,50,6.40
2020,01,12,10,51,6.40
2020,01,12,10,52,6.40
2020,01,12,10,53,6.40
2020,01,12,10,54,4.80
2020,01,12,10,55,6.40
2020,01,12,10,56,9.60
2020,01,12,10,57,8.10
2020,01,12,10,58,6.40
2020,01,12,10,59,6.40
2020,01,12,11,00,6.40
2020,01,12,11,01,6.40
2020,01,12,11,02,6.40
2020,01,12,11,03,4.80
2020,01,12,11,04,6.40
2020,01,12,11,05,6.40
2020,01,12,11,06,6.40
2020,01,12,11,07,8.10
2020,01,12,11,08,6.40
2020,01,12,11,09,11.30
2020,01,12,11,10,9.60
2020,01,12,11,11,9.60
2020,01,12,11,12,12.90
2020,01,12,11,13,4.80
2020,01,12,11,14,4.80
2020,01,12,11,15,4.80
2020,01,12,11,16,8.10
2020,01,12,11,17,8.10
2020,01,12,11,18,4.80
2020,01,12,11,19,4.80
2020,01,12,11,20,6.40
2020,01,12,11,21,4.80
2020,01,12,11,22,6.40
2020,01,12,11,23,4.80
2020,01,12,11,24,4.80
2020,01,12,11,25,6.40
2020,01,12,11,26,4.80
2020,01,12,11,27,6.40
2020,01,12,11,28,3.20
2020,01,12,11,29,6.40
2020,01,12,11,30,6.40
2020,01,12,11,31,8.10
2020,01,12,11,32,6.40
2020,01,12,11,33,11.30
2020,01,12,11,34,8.10
2020,01,12,11,35,4.80
2020,01,12,11,36,11.30
2020,01,12,11,37,4.80
2020,01,12,11,38,11.30
2020,01,12,11,39,11.30
2020,01,12,11,40,9.60
2020,01,12,11,41,19.30
2020,01,12,11,42,29.00
2020,01,12,11,43,25.70
2020,01,12,11,44,17.70
2020,01,12,11,45,14.50
2020,01,12,11,46,11.30
2020,01,12,11,47,9.60
2020,01,12,11,48,11.30
2020,01,12,11,49,11.30
2020,01,12,11,50,4.80
2020,01,12,11,51,9.60
2020,01,12,11,52,4.80
2020,01,12,11,53,3.20
2020,01,12,11,54,8.10
2020,01,12,11,55,16.10
2020,01,12,11,56,14.50
2020,01,12,11,57,8.10
2020,01,12,11,58,9.60
2020,01,12,11,59,9.60
2020,01,12,12,00,8.10
2020,01,12,12,01,12.90
2020,01,12,12,02,8.10
2020,01,12,12,03,11.30
2020,01,12,12,04,16.10
2020,01,12,12,05,12.90
2020,01,12,12,06,22.50
2020,01,12,12,07,19.30
2020,01,12,12,08,8.10
2020,01,12,12,09,40.20
2020,01,12,12,10,27.40
2020,01,12,12,11,11.30
2020,01,12,12,12,9.60
2020,01,12,12,13,12.90
2020,01,12,12,14,12.90
2020,01,12,12,15,14.50
2020,01,12,12,16,6.40
2020,01,12,12,17,20.90
2020,01,12,12,18,17.70
2020,01,12,12,19,6.40
2020,01,12,12,20,8.10
2020,01,12,12,21,8.10
2020,01,12,12,22,8.10
2020,01,12,12,23,9.60
2020,01,12,12,24,11.30
2020,01,12,12,25,9.60
2020,01,12,12,26,9.60
2020,01,12,12,27,11.30
2020,01,12,12,28,6.40
2020,01,12,12,29,6.40
2020,01,12,12,30,14.50
2020,01,12,12,31,12.90
2020,01,12,12,32,9.60
2020,01,12,12,33,25.70
2020,01,12,12,34,19.30
2020,01,12,12,35,12.90
2020,01,12,12,36,19.30
2020,01,12,12,37,22.50
2020,01,12,12,38,19.30
2020,01,12,12,39,17.70
2020,01,12,12,40,22.50
2020,01,12,12,41,17.70
2020,01,12,12,42,16.10
2020,01,12,12,43,19.30
2020,01,12,12,44,12.90
2020,01,12,12,45,12.90
2020,01,12,12,46,17.70
2020,01,12,12,47,20.90
2020,01,12,12,48,22.50
2020,01,12,12,49,14.50
2020,01,12,12,50,20.90
2020,01,12,12,51,17.70
2020,01,12,12,52,17.70
2020,01,12,12,53,17.70
2020,01,12,12,54,14.50
2020,01,12,12,55,12.90
2020,01,12,12,56,6.40
2020,01,12,12,57,14.50
2020,01,12,12,58,8.10
2020,01,12,12,59,11.30
2020,01,12,13,00,9.60
2020,01,12,13,01,14.50
2020,01,12,13,02,9.60
2020,01,12,13,03,17.70
2020,01,12,13,04,22.50
2020,01,12,13,05,20.90
2020,01,12,13,06,14.50
2020,01,12,13,07,8.10
2020,01,12,13,08,14.50
2020,01,12,13,09,17.70
2020,01,12,13,10,12.90
2020,01,12,13,11,22.50
2020,01,12,13,12,14.50
2020,01,12,13,13,19.30
2020,01,12,13,14,17.70
2020,01,12,13,15,6.40
2020,01,12,13,16,16.10
2020,01,12,13,17,9.60
2020,01,12,13,18,6.40
2020,01,12,13,19,16.10
2020,01,12,13,20,12.90
2020,01,12,13,21,16.10
2020,01,12,13,22,8.10
2020,01,12,13,23,6.40
2020,01,12,13,24,8.10
2020,01,12,13,25,6.40
2020,01,12,13,26,16.10
2020,01,12,13,27,17.70
2020,01,12,13,28,14.50
2020,01,12,13,29,12.90
2020,01,12,13,30,14.50
2020,01,12,13,31,6.40
2020,01,12,13,32,12.90
2020,01,12,13,33,11.30
2020,01,12,13,34,9.60
2020,01,12,13,35,8.10
2020,01,12,13,36,16.10
2020,01,12,13,37,25.70
2020,01,12,13,38,20.90
2020,01,12,13,39,12.90
2020,01,12,13,40,19.30
2020,01,12,13,41,16.10
2020,01,12,13,42,20.90
2020,01,12,13,43,9.60
2020,01,12,13,44,14.50
2020,01,12,13,45,8.10
2020,01,12,13,46,12.90
2020,01,12,13,47,16.10
2020,01,12,13,48,22.50
2020,01,12,13,49,17.70
2020,01,12,13,50,20.90
2020,01,12,13,51,8.10
2020,01,12,13,52,14.50
2020,01,12,13,53,4.80
2020,01,12,13,54,16.10
2020,01,12,13,55,6.40
2020,01,12,13,56,11.30
2020,01,12,13,57,12.90
2020,01,12,13,58,11.30
2020,01,12,13,59,4.80
2020,01,12,14,00,14.50
2020,01,12,14,01,20.90
2020,01,12,14,02,11.30
2020,01,12,14,03,12.90
2020,01,12,14,04,12.90
2020,01,12,14,05,6.40
2020,01,12,14,06,14.50
2020,01,12,14,07,20.90
2020,01,12,14,08,11.30
2020,01,12,14,09,12.90
2020,01,12,14,10,8.10
2020,01,12,14,11,12.90
2020,01,12,14,12,9.60
2020,01,12,14,13,3.20
2020,01,12,14,14,6.40
2020,01,12,14,15,6.40
2020,01,12,14,16,6.40
2020,01,12,14,17,16.10
2020,01,12,14,18,12.90
2020,01,12,14,19,8.10
2020,01,12,14,20,12.90
2020,01,12,14,21,11.30
2020,01,12,14,22,11.30
2020,01,12,14,23,14.50
2020,01,12,14,24,14.50
2020,01,12,14,25,11.30
2020,01,12,14,26,8.10
2020,01,12,14,27,29.00
2020,01,12,14,28,8.10
2020,01,12,14,29,25.70
2020,01,12,14,30,19.30
2020,01,12,14,31,19.30
2020,01,12,14,32,12.90
2020,01,12,14,33,16.10
2020,01,12,14,34,12.90
2020,01,12,14,35,14.50
2020,01,12,14,36,17.70
2020,01,12,14,37,12.90
2020,01,12,14,38,24.20
2020,01,12,14,39,8.10
2020,01,12,14,40,16.10
2020,01,12,14,41,6.40
2020,01,12,14,42,8.10
2020,01,12,14,43,6.40
2020,01,12,14,44,8.10
2020,01,12,14,45,12.90
2020,01,12,14,46,8.10
2020,01,12,14,47,6.40
2020,01,12,14,48,12.90
2020,01,12,14,49,4.80
2020,01,12,14,50,8.10
2020,01,12,14,51,8.10
2020,01,12,14,52,6.40
2020,01,12,14,53,9.60
2020,01,12,14,54,8.10
2020,01,12,14,55,16.10
2020,01,12,14,56,16.10
2020,01,12,14,57,4.80
2020,01,12,14,58,11.30
2020,01,12,14,59,6.40
2020,01,12,15,00,9.60
2020,01,12,15,01,17.70
2020,01,12,15,02,19.30
2020,01,12,15,03,14.50
2020,01,12,15,04,12.90
2020,01,12,15,05,12.90
2020,01,12,15,06,11.30
2020,01,12,15,07,11.30
2020,01,12,15,08,14.50
2020,01,12,15,09,6.40
2020,01,12,15,10,11.30
2020,01,12,15,11,27.40
2020,01,12,15,12,11.30
2020,01,12,15,13,9.60
2020,01,12,15,14,9.60
2020,01,12,15,15,20.90
2020,01,12,15,16,25.70
2020,01,12,15,17,22.50
2020,01,12,15,18,22.50
2020,01,12,15,19,19.30
2020,01,12,15,20,14.50
2020,01,12,15,21,8.10
2020,01,12,15,22,19.30
2020,01,12,15,23,22.50
2020,01,12,15,24,16.10
2020,01,12,15,25,14.50
2020,01,12,15,26,12.90
2020,01,12,15,27,17.70
2020,01,12,15,28,12.90
2020,01,12,15,29,6.40
2020,01,12,15,30,14.50
2020,01,12,15,31,17.70
2020,01,12,15,32,22.50
2020,01,12,15,33,17.70
2020,01,12,15,34,14.50
2020,01,12,15,35,16.10
2020,01,12,15,36,19.30
2020,01,12,15,37,17.70
2020,01,12,15,38,17.70
2020,01,12,15,39,11.30
2020,01,12,15,40,9.60
2020,01,12,15,41,12.90
2020,01,12,15,42,14.50
2020,01,12,15,43,20.90
2020,01,12,15,44,11.30
2020,01,12,15,45,11.30
2020,01,12,15,46,20.90
2020,01,12,15,47,19.30
2020,01,12,15,48,12.90
2020,01,12,15,49,30.60
2020,01,12,15,50,19.30
2020,01,12,15,51,16.10
2020,01,12,15,52,25.70
2020,01,12,15,53,24.20
2020,01,12,15,54,20.90
2020,01,12,15,55,29.00
2020,01,12,15,56,33.80
2020,01,12,15,57,25.70
2020,01,12,15,58,22.50
2020,01,12,15,59,22.50
2020,01,12,16,00,9.60
2020,01,12,16,01,14.50
2020,01,12,16,02,20.90
2020,01,12,16,03,17.70
2020,01,12,16,04,17.70
2020,01,12,16,05,17.70
2020,01,12,16,06,16.10
2020,01,12,16,07,25.70
2020,01,12,16,08,24.20
2020,01,12,16,09,17.70
2020,01,12,16,10,17.70
2020,01,12,16,11,19.30
2020,01,12,16,12,20.90
2020,01,12,16,13,12.90
2020,01,12,16,14,20.90
2020,01,12,16,15,14.50
2020,01,12,16,16,8.10
2020,01,12,16,17,17.70
2020,01,12,16,18,32.20
2020,01,12,16,19,20.90
2020,01,12,16,20,22.50
2020,01,12,16,21,25.70
2020,01,12,16,22,17.70
2020,01,12,16,23,22.50
2020,01,12,16,24,27.40
2020,01,12,16,25,27.40
2020,01,12,16,26,24.20
2020,01,12,16,27,24.20
2020,01,12,16,28,22.50
2020,01,12,16,29,29.00
2020,01,12,16,30,20.90
2020,01,12,16,31,14.50
2020,01,12,16,32,20.90
2020,01,12,16,33,35.40
2020,01,12,16,34,16.10
2020,01,12,16,35,24.20
2020,01,12,16,36,22.50
2020,01,12,16,37,24.20
2020,01,12,16,38,16.10
2020,01,12,16,39,20.90
2020,01,12,16,40,20.90
2020,01,12,16,41,35.40
2020,01,12,16,42,24.20
2020,01,12,16,43,19.30
2020,01,12,16,44,24.20
2020,01,12,16,45,32.20
2020,01,12,16,46,16.10
2020,01,12,16,47,25.70
2020,01,12,16,48,16.10
2020,01,12,16,49,25.70
2020,01,12,16,50,22.50
2020,01,12,16,51,22.50
2020,01,12,16,52,11.30
2020,01,12,16,53,16.10
2020,01,12,16,54,22.50
2020,01,12,16,55,24.20
2020,01,12,16,56,20.90
2020,01,12,16,57,16.10
2020,01,12,16,58,32.20
2020,01,12,16,59,37.00
2020,01,12,17,00,30.60
2020,01,12,17,01,27.40
2020,01,12,17,02,16.10
2020,01,12,17,03,32.20
2020,01,12,17,04,30.60
2020,01,12,17,05,24.20
2020,01,12,17,06,24.20
2020,01,12,17,07,27.40
2020,01,12,17,08,30.60
2020,01,12,17,09,24.20
2020,01,12,17,10,17.70
2020,01,12,17,11,20.90
2020,01,12,17,12,27.40
2020,01,12,17,13,27.40
2020,01,12,17,14,29.00
2020,01,12,17,15,24.20
2020,01,12,17,16,17.70
2020,01,12,17,17,19.30
2020,01,12,17,18,19.30
2020,01,12,17,19,37.00
2020,01,12,17,20,16.10
2020,01,12,17,21,20.90
2020,01,12,17,22,29.00
2020,01,12,17,23,25.70
2020,01,12,17,24,24.20
2020,01,12,17,25,33.80
2020,01,12,17,26,27.40
2020,01,12,17,27,20.90
2020,01,12,17,28,32.20
2020,01,12,17,29,19.30
2020,01,12,17,30,33.80
2020,01,12,17,31,24.20
2020,01,12,17,32,27.40
2020,01,12,17,33,33.80
2020,01,12,17,34,33.80
2020,01,12,17,35,14.50
2020,01,12,17,36,30.60
2020,01,12,17,37,25.70
2020,01,12,17,38,24.20
2020,01,12,17,39,20.90
2020,01,12,17,40,24.20
2020,01,12,17,41,30.60
2020,01,12,17,42,17.70
2020,01,12,17,43,35.40
2020,01,12,17,44,20.90
2020,01,12,17,45,29.00
2020,01,12,17,46,24.20
2020,01,12,17,47,25.70
2020,01,12,17,48,25.70
2020,01,12,17,49,41.80
2020,01,12,17,50,27.40
2020,01,12,17,51,19.30
2020,01,12,17,52,12.90
2020,01,12,17,53,20.90
2020,01,12,17,54,24.20
2020,01,12,17,55,22.50
2020,01,12,17,56,24.20
2020,01,12,17,57,14.50
2020,01,12,17,58,32.20
2020,01,12,17,59,29.00
2020,01,12,18,00,29.00
2020,01,12,18,01,29.00
2020,01,12,18,02,20.90
2020,01,12,18,03,12.90
2020,01,12,18,04,17.70
2020,01,12,18,05,16.10
2020,01,12,18,06,16.10
2020,01,12,18,07,19.30
2020,01,12,18,08,24.20
2020,01,12,18,09,14.50
2020,01,12,18,10,19.30
2020,01,12,18,11,32.20
2020,01,12,18,12,19.30
2020,01,12,18,13,27.40
2020,01,12,18,14,24.20
2020,01,12,18,15,27.40
2020,01,12,18,16,19.30
2020,01,12,18,17,22.50
2020,01,12,18,18,32.20
2020,01,12,18,19,27.40
2020,01,12,18,20,24.20
2020,01,12,18,21,37.00
2020,01,12,18,22,30.60
2020,01,12,18,23,27.40
2020,01,12,18,24,16.10
2020,01,12,18,25,29.00
2020,01,12,18,26,25.70
2020,01,12,18,27,19.30
2020,01,12,18,28,30.60
2020,01,12,18,29,22.50
2020,01,12,18,30,29.00
2020,01,12,18,31,35.40
2020,01,12,18,32,27.40
2020,01,12,18,33,27.40
2020,01,12,18,34,30.60
2020,01,12,18,35,25.70
2020,01,12,18,36,25.70
2020,01,12,18,37,25.70
2020,01,12,18,38,29.00
2020,01,12,18,39,29.00